Tabellarische Ansicht des 20.9.2020


Die einzelnen Werte des Tages

Uhrzeit Temperatur Luftdruck Luftfeuchte Wind Hi-Wind Taupunkt THW Index Wind Chill Heat Index Solar- strahlung Regen

00:00

10.8 C

1016.0 hpa

65 %

0.0 km/h aus 113

1.6 km/h aus N

4.5 C

10.4 C

10.8 C

10.4 C

0 W/m

0.00 mm

00:05

10.6 C

1016.0 hpa

64 %

0.0 km/h aus 114

0.0 km/h aus ---

4.0 C

10.2 C

10.6 C

10.2 C

0 W/m

0.00 mm

00:10

10.2 C

1016.0 hpa

65 %

0.0 km/h aus 117

0.0 km/h aus ---

3.9 C

9.9 C

10.2 C

9.9 C

0 W/m

0.00 mm

00:15

9.9 C

1016.0 hpa

65 %

0.0 km/h aus 117

0.0 km/h aus ---

3.7 C

9.6 C

9.9 C

9.6 C

0 W/m

0.00 mm

00:20

9.7 C

1016.0 hpa

66 %

0.0 km/h aus 117

0.0 km/h aus ---

3.7 C

9.4 C

9.7 C

9.4 C

0 W/m

0.00 mm

00:25

9.4 C

1016.0 hpa

67 %

0.0 km/h aus 115

0.0 km/h aus ---

3.6 C

9.2 C

9.4 C

9.2 C

0 W/m

0.00 mm

00:30

9.2 C

1016.0 hpa

68 %

0.0 km/h aus 115

0.0 km/h aus ---

3.6 C

8.9 C

9.2 C

8.9 C

0 W/m

0.00 mm

00:35

9.0 C

1016.0 hpa

68 %

0.0 km/h aus 115

0.0 km/h aus ---

3.4 C

8.7 C

9.0 C

8.7 C

0 W/m

0.00 mm

00:40

8.8 C

1016.0 hpa

68 %

0.0 km/h aus 116

0.0 km/h aus ---

3.2 C

8.5 C

8.8 C

8.5 C

0 W/m

0.00 mm

00:45

8.7 C

1015.9 hpa

69 %

0.0 km/h aus 117

0.0 km/h aus ---

3.3 C

8.4 C

8.7 C

8.4 C

0 W/m

0.00 mm

00:50

8.5 C

1015.9 hpa

69 %

0.0 km/h aus 117

0.0 km/h aus ---

3.1 C

8.2 C

8.5 C

8.2 C

0 W/m

0.00 mm

00:55

8.3 C

1015.9 hpa

69 %

0.0 km/h aus 116

0.0 km/h aus ---

3.0 C

8.1 C

8.3 C

8.1 C

0 W/m

0.00 mm

01:00

8.2 C

1015.9 hpa

70 %

0.0 km/h aus 114

0.0 km/h aus ---

3.0 C

7.9 C

8.2 C

7.9 C

0 W/m

0.00 mm

01:05

8.1 C

1015.9 hpa

71 %

0.0 km/h aus 115

0.0 km/h aus ---

3.1 C

7.8 C

8.1 C

7.8 C

0 W/m

0.00 mm

01:10

7.9 C

1015.9 hpa

71 %

0.0 km/h aus 116

0.0 km/h aus ---

3.0 C

7.7 C

7.9 C

7.7 C

0 W/m

0.00 mm

01:15

7.8 C

1015.7 hpa

71 %

0.0 km/h aus 116

0.0 km/h aus ---

2.8 C

7.5 C

7.8 C

7.5 C

0 W/m

0.00 mm

01:20

7.7 C

1015.7 hpa

72 %

0.0 km/h aus 117

0.0 km/h aus ---

3.0 C

7.4 C

7.7 C

7.4 C

0 W/m

0.00 mm

01:25

7.6 C

1015.7 hpa

72 %

0.0 km/h aus 116

0.0 km/h aus ---

2.8 C

7.3 C

7.6 C

7.3 C

0 W/m

0.00 mm

01:30

7.4 C

1015.6 hpa

73 %

0.0 km/h aus 114

0.0 km/h aus ---

2.9 C

7.2 C

7.4 C

7.2 C

0 W/m

0.00 mm

01:35

7.3 C

1015.6 hpa

73 %

0.0 km/h aus 114

0.0 km/h aus ---

2.8 C

7.1 C

7.3 C

7.1 C

0 W/m

0.00 mm

01:40

7.3 C

1015.6 hpa

73 %

0.0 km/h aus 118

0.0 km/h aus ---

2.8 C

7.1 C

7.3 C

7.1 C

0 W/m

0.00 mm

01:45

7.2 C

1015.5 hpa

73 %

0.0 km/h aus 117

0.0 km/h aus ---

2.6 C

6.9 C

7.2 C

6.9 C

0 W/m

0.00 mm

01:50

7.1 C

1015.5 hpa

73 %

0.0 km/h aus 117

0.0 km/h aus ---

2.5 C

6.8 C

7.1 C

6.8 C

0 W/m

0.00 mm

01:55

6.9 C

1015.5 hpa

74 %

0.0 km/h aus 116

0.0 km/h aus ---

2.6 C

6.7 C

6.9 C

6.7 C

0 W/m

0.00 mm

02:00

6.8 C

1015.4 hpa

74 %

0.0 km/h aus 115

0.0 km/h aus ---

2.5 C

6.6 C

6.8 C

6.6 C

0 W/m

0.00 mm

02:05

6.7 C

1015.4 hpa

73 %

0.0 km/h aus 115

0.0 km/h aus ---

2.2 C

6.5 C

6.7 C

6.5 C

0 W/m

0.00 mm

02:10

6.6 C

1015.4 hpa

74 %

0.0 km/h aus 116

0.0 km/h aus ---

2.3 C

6.4 C

6.6 C

6.4 C

0 W/m

0.00 mm

02:15

6.6 C

1015.4 hpa

74 %

0.0 km/h aus 116

0.0 km/h aus ---

2.2 C

6.3 C

6.6 C

6.3 C

0 W/m

0.00 mm

02:20

6.4 C

1015.4 hpa

75 %

0.0 km/h aus 117

0.0 km/h aus ---

2.3 C

6.2 C

6.4 C

6.2 C

0 W/m

0.00 mm

02:25

6.3 C

1015.4 hpa

76 %

0.0 km/h aus 117

0.0 km/h aus ---

2.4 C

6.1 C

6.3 C

6.1 C

0 W/m

0.00 mm

02:30

6.3 C

1015.5 hpa

75 %

0.0 km/h aus 116

0.0 km/h aus ---

2.2 C

6.1 C

6.3 C

6.1 C

0 W/m

0.00 mm

02:35

6.2 C

1015.5 hpa

76 %

0.0 km/h aus 113

0.0 km/h aus ---

2.2 C

5.9 C

6.2 C

5.9 C

0 W/m

0.00 mm

02:40

6.1 C

1015.5 hpa

76 %

0.0 km/h aus 115

0.0 km/h aus ---

2.1 C

5.8 C

6.1 C

5.8 C

0 W/m

0.00 mm

02:45

5.9 C

1015.5 hpa

76 %

0.0 km/h aus 118

0.0 km/h aus ---

2.0 C

5.7 C

5.9 C

5.7 C

0 W/m

0.00 mm

02:50

5.9 C

1015.5 hpa

76 %

0.0 km/h aus 117

0.0 km/h aus ---

2.0 C

5.7 C

5.9 C

5.7 C

0 W/m

0.00 mm

02:55

5.8 C

1015.5 hpa

77 %

0.0 km/h aus 116

0.0 km/h aus ---

2.1 C

5.6 C

5.8 C

5.6 C

0 W/m

0.00 mm

03:00

5.8 C

1015.5 hpa

77 %

0.0 km/h aus 117

0.0 km/h aus ---

2.1 C

5.6 C

5.8 C

5.6 C

0 W/m

0.00 mm

03:05

5.7 C

1015.5 hpa

77 %

0.0 km/h aus 115

0.0 km/h aus ---

1.9 C

5.4 C

5.7 C

5.4 C

0 W/m

0.00 mm

03:10

5.7 C

1015.5 hpa

78 %

1.6 km/h aus 114

3.2 km/h aus NNE

2.1 C

5.5 C

5.7 C

5.5 C

0 W/m

0.00 mm

03:15

5.6 C

1015.4 hpa

79 %

0.0 km/h aus 116

1.6 km/h aus ENE

2.3 C

5.4 C

5.6 C

5.4 C

0 W/m

0.00 mm

03:20

5.6 C

1015.4 hpa

79 %

0.0 km/h aus 117

0.0 km/h aus ---

2.2 C

5.4 C

5.6 C

5.4 C

0 W/m

0.00 mm

03:25

5.4 C

1015.4 hpa

78 %

0.0 km/h aus 117

0.0 km/h aus ---

1.9 C

5.3 C

5.4 C

5.3 C

0 W/m

0.00 mm

03:30

5.4 C

1015.5 hpa

79 %

0.0 km/h aus 117

0.0 km/h aus ---

2.0 C

5.2 C

5.4 C

5.2 C

0 W/m

0.00 mm

03:35

5.3 C

1015.5 hpa

79 %

0.0 km/h aus 116

0.0 km/h aus ---

2.0 C

5.2 C

5.3 C

5.2 C

0 W/m

0.00 mm

03:40

5.3 C

1015.5 hpa

80 %

0.0 km/h aus 111

0.0 km/h aus ---

2.1 C

5.1 C

5.3 C

5.1 C

0 W/m

0.00 mm

03:45

5.3 C

1015.5 hpa

80 %

0.0 km/h aus 115

0.0 km/h aus ---

2.1 C

5.1 C

5.3 C

5.1 C

0 W/m

0.00 mm

03:50

5.2 C

1015.5 hpa

80 %

0.0 km/h aus 116

0.0 km/h aus ---

2.1 C

5.1 C

5.2 C

5.1 C

0 W/m

0.00 mm

03:55

5.2 C

1015.5 hpa

81 %

0.0 km/h aus 117

0.0 km/h aus ---

2.2 C

5.0 C

5.2 C

5.0 C

0 W/m

0.00 mm

04:00

5.1 C

1015.6 hpa

80 %

0.0 km/h aus 116

0.0 km/h aus ---

1.9 C

4.9 C

5.1 C

4.9 C

0 W/m

0.00 mm

04:05

5.0 C

1015.6 hpa

81 %

0.0 km/h aus 117

0.0 km/h aus ---

2.0 C

4.8 C

5.0 C

4.8 C

0 W/m

0.00 mm

04:10

4.9 C

1015.6 hpa

80 %

0.0 km/h aus 116

0.0 km/h aus ---

1.8 C

4.8 C

4.9 C

4.8 C

0 W/m

0.00 mm

04:15

4.8 C

1015.5 hpa

80 %

0.0 km/h aus 115

0.0 km/h aus ---

1.7 C

4.7 C

4.8 C

4.7 C

0 W/m

0.00 mm

04:20

4.8 C

1015.5 hpa

80 %

0.0 km/h aus 114

0.0 km/h aus ---

1.6 C

4.6 C

4.8 C

4.6 C

0 W/m

0.00 mm

04:25

4.7 C

1015.5 hpa

81 %

0.0 km/h aus 116

0.0 km/h aus ---

1.7 C

4.6 C

4.7 C

4.6 C

0 W/m

0.00 mm

04:30

4.7 C

1015.4 hpa

81 %

0.0 km/h aus 117

1.6 km/h aus ENE

1.7 C

4.5 C

4.7 C

4.5 C

0 W/m

0.00 mm

04:35

4.6 C

1015.4 hpa

81 %

0.0 km/h aus 117

0.0 km/h aus ---

1.6 C

4.4 C

4.6 C

4.4 C

0 W/m

0.00 mm

04:40

4.5 C

1015.4 hpa

81 %

0.0 km/h aus 117

0.0 km/h aus ---

1.5 C

4.3 C

4.5 C

4.3 C

0 W/m

0.00 mm

04:45

4.4 C

1015.4 hpa

81 %

0.0 km/h aus 117

0.0 km/h aus ---

1.5 C

4.3 C

4.4 C

4.3 C

0 W/m

0.00 mm

04:50

4.4 C

1015.4 hpa

82 %

0.0 km/h aus 114

0.0 km/h aus ---

1.6 C

4.2 C

4.4 C

4.2 C

0 W/m

0.00 mm

04:55

4.3 C

1015.4 hpa

82 %

0.0 km/h aus 115

0.0 km/h aus ---

1.5 C

4.2 C

4.3 C

4.2 C

0 W/m

0.00 mm

05:00

4.3 C

1015.4 hpa

82 %

0.0 km/h aus 116

0.0 km/h aus ---

1.5 C

4.2 C

4.3 C

4.2 C

0 W/m

0.00 mm

05:05

4.3 C

1015.4 hpa

82 %

0.0 km/h aus 117

0.0 km/h aus ---

1.5 C

4.1 C

4.3 C

4.1 C

0 W/m

0.00 mm

05:10

4.2 C

1015.4 hpa

83 %

0.0 km/h aus 116

1.6 km/h aus ENE

1.6 C

4.1 C

4.2 C

4.1 C

0 W/m

0.00 mm

05:15

4.2 C

1015.3 hpa

83 %

1.6 km/h aus 116

3.2 km/h aus ENE

1.5 C

4.1 C

4.2 C

4.1 C

0 W/m

0.00 mm

05:20

4.1 C

1015.3 hpa

83 %

0.0 km/h aus 117

3.2 km/h aus ENE

1.5 C

4.0 C

4.1 C

4.0 C

0 W/m

0.00 mm

05:25

4.1 C

1015.3 hpa

83 %

0.0 km/h aus 115

1.6 km/h aus ENE

1.4 C

3.9 C

4.1 C

3.9 C

0 W/m

0.00 mm

05:30

3.9 C

1015.3 hpa

83 %

1.6 km/h aus 112

6.4 km/h aus E

1.3 C

3.8 C

3.9 C

3.8 C

0 W/m

0.00 mm

05:35

3.9 C

1015.3 hpa

83 %

1.6 km/h aus 116

3.2 km/h aus ENE

1.3 C

3.8 C

3.9 C

3.8 C

0 W/m

0.00 mm

05:40

3.9 C

1015.3 hpa

84 %

1.6 km/h aus 117

4.8 km/h aus ENE

1.5 C

3.8 C

3.9 C

3.8 C

0 W/m

0.00 mm

05:45

4.1 C

1015.2 hpa

85 %

1.6 km/h aus 116

4.8 km/h aus ENE

1.8 C

3.9 C

4.1 C

3.9 C

0 W/m

0.00 mm

05:50

4.3 C

1015.2 hpa

86 %

1.6 km/h aus 117

6.4 km/h aus N

2.1 C

4.2 C

4.3 C

4.2 C

0 W/m

0.00 mm

05:55

4.6 C

1015.2 hpa

87 %

1.6 km/h aus 117

3.2 km/h aus N

2.6 C

4.4 C

4.6 C

4.4 C

0 W/m

0.00 mm

06:00

4.7 C

1015.4 hpa

87 %

0.0 km/h aus 115

1.6 km/h aus N

2.7 C

4.6 C

4.7 C

4.6 C

0 W/m

0.00 mm

06:05

4.8 C

1015.4 hpa

87 %

0.0 km/h aus 116

1.6 km/h aus N

2.8 C

4.7 C

4.8 C

4.7 C

0 W/m

0.00 mm

06:10

4.8 C

1015.4 hpa

87 %

0.0 km/h aus 115

3.2 km/h aus N

2.8 C

4.7 C

4.8 C

4.7 C

0 W/m

0.00 mm

06:15

4.8 C

1015.3 hpa

87 %

0.0 km/h aus 117

0.0 km/h aus ---

2.8 C

4.7 C

4.8 C

4.7 C

0 W/m

0.00 mm

06:20

4.7 C

1015.3 hpa

87 %

0.0 km/h aus 115

0.0 km/h aus ---

2.7 C

4.6 C

4.7 C

4.6 C

0 W/m

0.00 mm

06:25

4.7 C

1015.3 hpa

87 %

0.0 km/h aus 117

0.0 km/h aus ---

2.7 C

4.6 C

4.7 C

4.6 C

0 W/m

0.00 mm

06:30

4.7 C

1015.2 hpa

87 %

0.0 km/h aus 117

0.0 km/h aus ---

2.7 C

4.6 C

4.7 C

4.6 C

0 W/m

0.00 mm

06:35

4.5 C

1015.2 hpa

86 %

0.0 km/h aus 116

0.0 km/h aus ---

2.4 C

4.4 C

4.5 C

4.4 C

0 W/m

0.00 mm

06:40

4.4 C

1015.2 hpa

86 %

0.0 km/h aus 113

0.0 km/h aus ---

2.3 C

4.3 C

4.4 C

4.3 C

0 W/m

0.00 mm

06:45

4.3 C

1015.1 hpa

86 %

0.0 km/h aus 116

0.0 km/h aus ---

2.2 C

4.2 C

4.3 C

4.2 C

0 W/m

0.00 mm

06:50

4.3 C

1015.1 hpa

86 %

0.0 km/h aus 117

0.0 km/h aus ---

2.1 C

4.2 C

4.3 C

4.2 C

0 W/m

0.00 mm

06:55

4.2 C

1015.1 hpa

86 %

0.0 km/h aus 117

0.0 km/h aus ---

2.0 C

4.1 C

4.2 C

4.1 C

0 W/m

0.00 mm

07:00

4.1 C

1015.3 hpa

86 %

0.0 km/h aus 116

0.0 km/h aus ---

1.9 C

3.9 C

4.1 C

3.9 C

0 W/m

0.00 mm

07:05

4.0 C

1015.3 hpa

86 %

0.0 km/h aus 115

0.0 km/h aus ---

1.9 C

3.9 C

4.0 C

3.9 C

2 W/m

0.00 mm

07:10

3.9 C

1015.3 hpa

86 %

0.0 km/h aus 116

0.0 km/h aus ---

1.8 C

3.8 C

3.9 C

3.8 C

6 W/m

0.00 mm

07:15

3.8 C

1015.4 hpa

86 %

0.0 km/h aus 114

0.0 km/h aus ---

1.7 C

3.7 C

3.8 C

3.7 C

10 W/m

0.00 mm

07:20

3.8 C

1015.4 hpa

86 %

0.0 km/h aus 116

0.0 km/h aus ---

1.7 C

3.7 C

3.8 C

3.7 C

12 W/m

0.00 mm

07:25

3.7 C

1015.4 hpa

86 %

0.0 km/h aus 115

1.6 km/h aus N

1.6 C

3.6 C

3.7 C

3.6 C

15 W/m

0.00 mm

07:30

3.7 C

1015.5 hpa

86 %

0.0 km/h aus 116

1.6 km/h aus N

1.5 C

3.6 C

3.7 C

3.6 C

18 W/m

0.00 mm

07:35

3.7 C

1015.5 hpa

87 %

1.6 km/h aus 117

4.8 km/h aus N

1.7 C

3.6 C

3.7 C

3.6 C

21 W/m

0.00 mm

07:40

3.7 C

1015.5 hpa

87 %

0.0 km/h aus 116

4.8 km/h aus NNE

1.7 C

3.6 C

3.7 C

3.6 C

24 W/m

0.00 mm

07:45

3.7 C

1015.5 hpa

87 %

0.0 km/h aus 117

0.0 km/h aus ---

1.7 C

3.6 C

3.7 C

3.6 C

26 W/m

0.00 mm

07:50

3.7 C

1015.5 hpa

87 %

0.0 km/h aus 114

0.0 km/h aus ---

1.8 C

3.6 C

3.7 C

3.6 C

29 W/m

0.00 mm

07:55

3.7 C

1015.5 hpa

88 %

0.0 km/h aus 114

1.6 km/h aus NNE

1.9 C

3.7 C

3.7 C

3.7 C

32 W/m

0.00 mm

08:00

3.8 C

1015.6 hpa

88 %

1.6 km/h aus 117

6.4 km/h aus N

2.0 C

3.7 C

3.8 C

3.7 C

33 W/m

0.00 mm

08:05

3.8 C

1015.6 hpa

88 %

1.6 km/h aus 116

3.2 km/h aus NNE

2.0 C

3.8 C

3.8 C

3.8 C

36 W/m

0.00 mm

08:10

3.9 C

1015.6 hpa

88 %

1.6 km/h aus 117

4.8 km/h aus NNE

2.1 C

3.9 C

3.9 C

3.9 C

39 W/m

0.00 mm

08:15

4.2 C

1015.7 hpa

89 %

1.6 km/h aus 116

6.4 km/h aus N

2.5 C

4.1 C

4.2 C

4.1 C

41 W/m

0.00 mm

08:20

4.5 C

1015.7 hpa

89 %

1.6 km/h aus 117

4.8 km/h aus NNE

2.8 C

4.4 C

4.5 C

4.4 C

43 W/m

0.00 mm

08:25

4.8 C

1015.7 hpa

90 %

0.0 km/h aus 114

4.8 km/h aus NNE

3.3 C

4.7 C

4.8 C

4.7 C

46 W/m

0.00 mm

08:30

5.1 C

1015.9 hpa

90 %

0.0 km/h aus 114

3.2 km/h aus NNE

3.6 C

5.0 C

5.1 C

5.0 C

88 W/m

0.00 mm

08:35

5.3 C

1015.9 hpa

91 %

0.0 km/h aus 117

3.2 km/h aus NNE

4.0 C

5.3 C

5.3 C

5.3 C

154 W/m

0.00 mm

08:40

5.8 C

1015.9 hpa

91 %

0.0 km/h aus 115

1.6 km/h aus NNE

4.5 C

5.8 C

5.8 C

5.8 C

169 W/m

0.00 mm

08:45

6.3 C

1016.0 hpa

92 %

0.0 km/h aus 116

0.0 km/h aus ---

5.1 C

6.3 C

6.3 C

6.3 C

184 W/m

0.00 mm

08:50

6.8 C

1016.0 hpa

92 %

0.0 km/h aus 116

0.0 km/h aus ---

5.6 C

6.9 C

6.8 C

6.9 C

199 W/m

0.00 mm

08:55

7.3 C

1016.0 hpa

92 %

0.0 km/h aus 115

0.0 km/h aus ---

6.1 C

7.3 C

7.3 C

7.3 C

213 W/m

0.00 mm

09:00

7.6 C

1015.9 hpa

92 %

0.0 km/h aus 115

0.0 km/h aus ---

6.3 C

7.7 C

7.6 C

7.7 C

227 W/m

0.00 mm

09:05

8.1 C

1015.9 hpa

92 %

0.0 km/h aus 117

0.0 km/h aus ---

6.9 C

8.2 C

8.1 C

8.2 C

240 W/m

0.00 mm

09:10

8.4 C

1015.9 hpa

92 %

0.0 km/h aus 117

0.0 km/h aus ---

7.2 C

8.6 C

8.4 C

8.6 C

252 W/m

0.00 mm

09:15

8.8 C

1016.0 hpa

87 %

0.0 km/h aus 116

3.2 km/h aus NE

6.7 C

8.8 C

8.8 C

8.8 C

268 W/m

0.00 mm

09:20

9.1 C

1016.0 hpa

84 %

0.0 km/h aus 116

3.2 km/h aus NE

6.5 C

9.1 C

9.1 C

9.1 C

284 W/m

0.00 mm

09:25

9.6 C

1016.0 hpa

81 %

0.0 km/h aus 114

1.6 km/h aus NE

6.5 C

9.6 C

9.6 C

9.6 C

298 W/m

0.00 mm

09:30

9.8 C

1016.0 hpa

79 %

0.0 km/h aus 117

3.2 km/h aus NE

6.3 C

9.7 C

9.8 C

9.7 C

310 W/m

0.00 mm

09:35

10.1 C

1016.0 hpa

79 %

0.0 km/h aus 117

4.8 km/h aus NE

6.6 C

10.0 C

10.1 C

10.0 C

322 W/m

0.00 mm

09:40

10.2 C

1016.0 hpa

79 %

0.0 km/h aus 117

4.8 km/h aus NE

6.7 C

10.1 C

10.2 C

10.1 C

334 W/m

0.00 mm

09:45

10.8 C

1016.1 hpa

77 %

1.6 km/h aus 116

4.8 km/h aus NE

6.9 C

10.6 C

10.8 C

10.6 C

346 W/m

0.00 mm

09:50

10.8 C

1016.1 hpa

76 %

0.0 km/h aus 115

1.6 km/h aus NNE

6.8 C

10.7 C

10.8 C

10.7 C

358 W/m

0.00 mm

09:55

11.2 C

1016.1 hpa

74 %

1.6 km/h aus 117

4.8 km/h aus NNE

6.8 C

10.9 C

11.2 C

10.9 C

370 W/m

0.00 mm

10:00

11.6 C

1016.0 hpa

74 %

3.2 km/h aus 116

8.0 km/h aus NE

7.1 C

11.3 C

11.6 C

11.3 C

381 W/m

0.00 mm

10:05

11.9 C

1016.0 hpa

73 %

1.6 km/h aus 116

4.8 km/h aus NE

7.3 C

11.6 C

11.9 C

11.6 C

391 W/m

0.00 mm

10:10

12.3 C

1016.0 hpa

71 %

3.2 km/h aus 114

6.4 km/h aus N

7.2 C

11.9 C

12.3 C

11.9 C

401 W/m

0.00 mm

10:15

12.4 C

1016.0 hpa

71 %

3.2 km/h aus 115

6.4 km/h aus NE

7.3 C

12.1 C

12.4 C

12.1 C

411 W/m

0.00 mm

10:20

13.1 C

1016.0 hpa

69 %

1.6 km/h aus 118

6.4 km/h aus NE

7.5 C

12.7 C

13.1 C

12.7 C

419 W/m

0.00 mm

10:25

13.1 C

1016.0 hpa

69 %

1.6 km/h aus 117

8.0 km/h aus ENE

7.5 C

12.7 C

13.1 C

12.7 C

428 W/m

0.00 mm

10:30

13.6 C

1016.0 hpa

68 %

1.6 km/h aus 114

6.4 km/h aus ENE

7.8 C

13.1 C

13.6 C

13.1 C

437 W/m

0.00 mm

10:35

13.8 C

1016.0 hpa

67 %

3.2 km/h aus 106

8.0 km/h aus N

7.8 C

13.3 C

13.8 C

13.3 C

444 W/m

0.00 mm

10:40

14.0 C

1016.0 hpa

67 %

3.2 km/h aus 114

8.0 km/h aus NNE

8.0 C

13.5 C

14.0 C

13.5 C

454 W/m

0.00 mm

10:45

14.2 C

1015.9 hpa

64 %

4.8 km/h aus 115

8.0 km/h aus N

7.5 C

13.6 C

14.2 C

13.6 C

463 W/m

0.00 mm

10:50

14.4 C

1015.9 hpa

66 %

1.6 km/h aus 116

6.4 km/h aus NE

8.2 C

13.9 C

14.4 C

13.9 C

472 W/m

0.00 mm

10:55

14.7 C

1015.9 hpa

65 %

1.6 km/h aus 116

6.4 km/h aus NE

8.2 C

14.1 C

14.7 C

14.1 C

480 W/m

0.00 mm

11:00

14.8 C

1015.9 hpa

63 %

1.6 km/h aus 115

6.4 km/h aus ENE

7.8 C

14.2 C

14.8 C

14.2 C

485 W/m

0.00 mm

11:05

15.3 C

1015.9 hpa

65 %

1.6 km/h aus 117

6.4 km/h aus NE

8.8 C

14.8 C

15.3 C

14.8 C

490 W/m

0.00 mm

11:10

15.8 C

1015.9 hpa

61 %

3.2 km/h aus 115

9.7 km/h aus NNE

8.3 C

15.1 C

15.8 C

15.1 C

495 W/m

0.00 mm

11:15

16.1 C

1015.9 hpa

60 %

4.8 km/h aus 116

9.7 km/h aus N

8.3 C

15.4 C

16.1 C

15.4 C

499 W/m

0.00 mm

11:20

16.5 C

1015.9 hpa

59 %

6.4 km/h aus 109

14.5 km/h aus NNE

8.5 C

15.8 C

16.5 C

15.8 C

503 W/m

0.00 mm

11:25

16.6 C

1015.9 hpa

58 %

6.4 km/h aus 113

12.9 km/h aus N

8.3 C

15.8 C

16.6 C

15.8 C

507 W/m

0.00 mm

11:30

17.1 C

1015.5 hpa

58 %

3.2 km/h aus 116

8.0 km/h aus N

8.8 C

16.4 C

17.1 C

16.4 C

510 W/m

0.00 mm

11:35

17.1 C

1015.5 hpa

57 %

6.4 km/h aus 114

14.5 km/h aus E

8.5 C

16.4 C

17.1 C

16.4 C

516 W/m

0.00 mm

11:40

17.3 C

1015.5 hpa

58 %

4.8 km/h aus 114

8.0 km/h aus NE

9.0 C

16.7 C

17.3 C

16.7 C

521 W/m

0.00 mm

11:45

17.6 C

1015.4 hpa

54 %

6.4 km/h aus 114

16.1 km/h aus ENE

8.1 C

16.8 C

17.6 C

16.8 C

524 W/m

0.00 mm

11:50

17.8 C

1015.4 hpa

54 %

6.4 km/h aus 114

14.5 km/h aus ENE

8.4 C

17.1 C

17.8 C

17.1 C

529 W/m

0.00 mm

11:55

17.9 C

1015.4 hpa

53 %

6.4 km/h aus 107

16.1 km/h aus NE

8.2 C

17.1 C

17.9 C

17.1 C

535 W/m

0.00 mm

12:00

17.8 C

1015.3 hpa

54 %

6.4 km/h aus 111

12.9 km/h aus ENE

8.4 C

17.1 C

17.8 C

17.1 C

539 W/m

0.00 mm

12:05

18.4 C

1015.3 hpa

53 %

6.4 km/h aus 103

17.7 km/h aus NE

8.7 C

17.7 C

18.4 C

17.7 C

544 W/m

0.00 mm

12:10

18.6 C

1015.3 hpa

52 %

9.7 km/h aus 94

17.7 km/h aus N

8.6 C

17.8 C

18.6 C

17.8 C

543 W/m

0.00 mm

12:15

18.8 C

1015.3 hpa

53 %

8.0 km/h aus 98

16.1 km/h aus NE

9.0 C

18.1 C

18.8 C

18.1 C

544 W/m

0.00 mm

12:20

18.8 C

1015.3 hpa

50 %

8.0 km/h aus 94

19.3 km/h aus N

8.2 C

17.9 C

18.8 C

17.9 C

543 W/m

0.00 mm

12:25

19.2 C

1015.3 hpa

51 %

4.8 km/h aus 108

16.1 km/h aus N

8.8 C

18.4 C

19.2 C

18.4 C

543 W/m

0.00 mm

12:30

19.2 C

1015.2 hpa

50 %

6.4 km/h aus 107

14.5 km/h aus NNE

8.5 C

18.3 C

19.2 C

18.3 C

543 W/m

0.00 mm

12:35

19.3 C

1015.2 hpa

49 %

9.7 km/h aus 97

16.1 km/h aus NNE

8.3 C

18.4 C

19.3 C

18.4 C

543 W/m

0.00 mm

12:40

19.5 C

1015.2 hpa

50 %

9.7 km/h aus 88

20.9 km/h aus N

8.8 C

18.7 C

19.5 C

18.7 C

544 W/m

0.00 mm

12:45

19.3 C

1015.3 hpa

49 %

9.7 km/h aus 83

20.9 km/h aus NE

8.3 C

18.5 C

19.3 C

18.5 C

548 W/m

0.00 mm

12:50

19.8 C

1015.3 hpa

49 %

9.7 km/h aus 89

19.3 km/h aus NE

8.8 C

19.1 C

19.8 C

19.1 C

550 W/m

0.00 mm

12:55

20.1 C

1015.3 hpa

49 %

6.4 km/h aus 95

16.1 km/h aus NNE

9.0 C

19.3 C

20.1 C

19.3 C

551 W/m

0.00 mm

13:00

20.1 C

1015.0 hpa

48 %

9.7 km/h aus 96

19.3 km/h aus NE

8.7 C

19.2 C

20.1 C

19.2 C

548 W/m

0.00 mm

13:05

20.2 C

1015.0 hpa

48 %

6.4 km/h aus 105

14.5 km/h aus NE

8.9 C

19.4 C

20.2 C

19.4 C

550 W/m

0.00 mm

13:10

20.3 C

1015.0 hpa

48 %

6.4 km/h aus 96

16.1 km/h aus NE

9.0 C

19.4 C

20.3 C

19.4 C

548 W/m

0.00 mm

13:15

20.2 C

1014.9 hpa

48 %

9.7 km/h aus 97

20.9 km/h aus NE

8.9 C

19.4 C

20.2 C

19.4 C

545 W/m

0.00 mm

13:20

20.4 C

1014.9 hpa

47 %

8.0 km/h aus 98

17.7 km/h aus NNE

8.7 C

19.5 C

20.4 C

19.5 C

547 W/m

0.00 mm

13:25

20.6 C

1014.9 hpa

47 %

6.4 km/h aus 97

17.7 km/h aus NNW

8.9 C

19.7 C

20.6 C

19.7 C

547 W/m

0.00 mm

13:30

20.9 C

1014.8 hpa

48 %

8.0 km/h aus 84

17.7 km/h aus NE

9.5 C

19.9 C

20.9 C

19.9 C

548 W/m

0.00 mm

13:35

21.0 C

1014.8 hpa

47 %

9.7 km/h aus 87

17.7 km/h aus NE

9.3 C

19.9 C

21.0 C

19.9 C

547 W/m

0.00 mm

13:40

21.1 C

1014.8 hpa

48 %

8.0 km/h aus 87

19.3 km/h aus NNE

9.7 C

20.1 C

21.1 C

20.1 C

545 W/m

0.00 mm

13:45

21.1 C

1014.7 hpa

46 %

11.3 km/h aus 84

19.3 km/h aus NE

9.0 C

19.9 C

21.1 C

19.9 C

547 W/m

0.00 mm

13:50

21.2 C

1014.7 hpa

46 %

11.3 km/h aus 89

24.1 km/h aus NNE

9.1 C

20.0 C

21.2 C

20.0 C

546 W/m

0.00 mm

13:55

21.3 C

1014.7 hpa

46 %

11.3 km/h aus 78

17.7 km/h aus N

9.2 C

20.2 C

21.3 C

20.2 C

545 W/m

0.00 mm

14:00

21.3 C

1014.5 hpa

46 %

9.7 km/h aus 85

19.3 km/h aus NNE

9.2 C

20.2 C

21.3 C

20.2 C

542 W/m

0.00 mm

14:05

21.3 C

1014.5 hpa

45 %

11.3 km/h aus 80

19.3 km/h aus NE

8.9 C

20.2 C

21.3 C

20.2 C

540 W/m

0.00 mm

14:10

21.5 C

1014.5 hpa

44 %

12.9 km/h aus 83

24.1 km/h aus N

8.7 C

20.1 C

21.2 C

20.3 C

539 W/m

0.00 mm

14:15

21.4 C

1014.4 hpa

44 %

11.3 km/h aus 86

25.7 km/h aus NNE

8.7 C

20.3 C

21.4 C

20.3 C

539 W/m

0.00 mm

14:20

21.4 C

1014.4 hpa

44 %

12.9 km/h aus 83

19.3 km/h aus NE

8.6 C

19.9 C

21.1 C

20.2 C

537 W/m

0.00 mm

14:25

21.3 C

1014.4 hpa

44 %

12.9 km/h aus 84

22.5 km/h aus NNE

8.5 C

19.8 C

21.0 C

20.1 C

535 W/m

0.00 mm

14:30

21.4 C

1014.4 hpa

45 %

11.3 km/h aus 82

19.3 km/h aus NE

9.0 C

20.3 C

21.4 C

20.3 C

533 W/m

0.00 mm

14:35

21.7 C

1014.4 hpa

43 %

9.7 km/h aus 80

19.3 km/h aus NE

8.6 C

20.6 C

21.7 C

20.6 C

530 W/m

0.00 mm

14:40

21.8 C

1014.4 hpa

43 %

11.3 km/h aus 81

22.5 km/h aus NE

8.6 C

20.7 C

21.8 C

20.7 C

530 W/m

0.00 mm

14:45

22.0 C

1014.2 hpa

42 %

9.7 km/h aus 89

20.9 km/h aus NE

8.5 C

20.9 C

22.0 C

20.9 C

526 W/m

0.00 mm

14:50

21.9 C

1014.2 hpa

43 %

12.9 km/h aus 85

25.7 km/h aus NNE

8.7 C

20.6 C

21.6 C

20.8 C

521 W/m

0.00 mm

14:55

22.2 C

1014.2 hpa

43 %

11.3 km/h aus 81

25.7 km/h aus NE

9.0 C

21.3 C

22.2 C

21.3 C

515 W/m

0.00 mm

15:00

22.2 C

1014.1 hpa

43 %

8.0 km/h aus 90

19.3 km/h aus NNE

9.0 C

21.3 C

22.2 C

21.3 C

514 W/m

0.00 mm

15:05

22.3 C

1014.1 hpa

42 %

9.7 km/h aus 81

19.3 km/h aus NE

8.7 C

21.4 C

22.3 C

21.4 C

383 W/m

0.00 mm

15:10

22.2 C

1014.1 hpa

41 %

9.7 km/h aus 95

24.1 km/h aus E

8.3 C

21.2 C

22.2 C

21.2 C

496 W/m

0.00 mm

15:15

22.2 C

1013.9 hpa

42 %

8.0 km/h aus 81

22.5 km/h aus NE

8.6 C

21.2 C

22.2 C

21.2 C

163 W/m

0.00 mm

15:20

22.2 C

1013.9 hpa

42 %

8.0 km/h aus 73

17.7 km/h aus NNE

8.7 C

21.3 C

22.2 C

21.3 C

388 W/m

0.00 mm

15:25

22.2 C

1013.9 hpa

41 %

12.9 km/h aus 83

25.7 km/h aus NNE

8.3 C

20.9 C

21.9 C

21.2 C

311 W/m

0.00 mm

15:30

22.3 C

1013.9 hpa

41 %

11.3 km/h aus 77

19.3 km/h aus NE

8.4 C

21.4 C

22.3 C

21.4 C

311 W/m

0.00 mm

15:35

22.2 C

1013.9 hpa

41 %

8.0 km/h aus 71

17.7 km/h aus ENE

8.3 C

21.2 C

22.2 C

21.2 C

218 W/m

0.00 mm

15:40

22.2 C

1013.9 hpa

41 %

12.9 km/h aus 79

22.5 km/h aus NE

8.3 C

20.9 C

21.9 C

21.2 C

184 W/m

0.00 mm

15:45

22.4 C

1013.9 hpa

41 %

11.3 km/h aus 78

19.3 km/h aus NE

8.5 C

21.5 C

22.4 C

21.5 C

121 W/m

0.00 mm

15:50

22.3 C

1013.9 hpa

41 %

12.9 km/h aus 77

25.7 km/h aus NNW

8.4 C

21.1 C

22.1 C

21.4 C

245 W/m

0.00 mm

15:55

22.4 C

1013.9 hpa

39 %

9.7 km/h aus 69

19.3 km/h aus NE

7.8 C

21.4 C

22.4 C

21.4 C

342 W/m

0.00 mm

16:00

22.4 C

1013.9 hpa

40 %

12.9 km/h aus 69

22.5 km/h aus NNE

8.1 C

21.2 C

22.1 C

21.4 C

414 W/m

0.00 mm

16:05

22.6 C

1013.9 hpa

39 %

9.7 km/h aus 75

22.5 km/h aus NNE

7.9 C

21.7 C

22.6 C

21.7 C

195 W/m

0.00 mm

16:10

22.5 C

1013.9 hpa

38 %

11.3 km/h aus 73

22.5 km/h aus NE

7.5 C

21.5 C

22.5 C

21.5 C

210 W/m

0.00 mm

16:15

22.5 C

1013.9 hpa

38 %

9.7 km/h aus 76

22.5 km/h aus ENE

7.5 C

21.5 C

22.5 C

21.5 C

86 W/m

0.00 mm

16:20

22.6 C

1013.9 hpa

38 %

8.0 km/h aus 69

19.3 km/h aus NE

7.6 C

21.7 C

22.6 C

21.7 C

211 W/m

0.00 mm

16:25

22.6 C

1013.9 hpa

38 %

11.3 km/h aus 64

20.9 km/h aus NE

7.5 C

21.6 C

22.6 C

21.6 C

344 W/m

0.00 mm

16:30

22.4 C

1013.9 hpa

38 %

9.7 km/h aus 80

19.3 km/h aus ENE

7.4 C

21.4 C

22.4 C

21.4 C

276 W/m

0.00 mm

16:35

22.6 C

1013.9 hpa

38 %

8.0 km/h aus 71

17.7 km/h aus NE

7.6 C

21.7 C

22.6 C

21.7 C

248 W/m

0.00 mm

16:40

22.7 C

1013.9 hpa

37 %

11.3 km/h aus 80

24.1 km/h aus ENE

7.2 C

21.7 C

22.7 C

21.7 C

343 W/m

0.00 mm

16:45

22.5 C

1013.8 hpa

36 %

12.9 km/h aus 83

24.1 km/h aus NNE

6.7 C

21.1 C

22.2 C

21.4 C

340 W/m

0.00 mm

16:50

22.7 C

1013.8 hpa

37 %

4.8 km/h aus 67

17.7 km/h aus NNE

7.3 C

21.8 C

22.7 C

21.8 C

328 W/m

0.00 mm

16:55

22.6 C

1013.8 hpa

37 %

11.3 km/h aus 78

25.7 km/h aus ENE

7.1 C

21.6 C

22.6 C

21.6 C

316 W/m

0.00 mm

17:00

22.4 C

1013.8 hpa

37 %

9.7 km/h aus 75

20.9 km/h aus ENE

7.0 C

21.3 C

22.4 C

21.3 C

304 W/m

0.00 mm

17:05

22.4 C

1013.8 hpa

38 %

8.0 km/h aus 70

22.5 km/h aus NE

7.4 C

21.4 C

22.4 C

21.4 C

292 W/m

0.00 mm

17:10

22.5 C

1013.8 hpa

37 %

9.7 km/h aus 83

17.7 km/h aus NE

7.1 C

21.4 C

22.5 C

21.4 C

281 W/m

0.00 mm

17:15

22.4 C

1013.8 hpa

37 %

9.7 km/h aus 69

20.9 km/h aus NE

7.0 C

21.3 C

22.4 C

21.3 C

269 W/m

0.00 mm

17:20

22.3 C

1013.8 hpa

37 %

11.3 km/h aus 71

24.1 km/h aus NE

6.9 C

21.2 C

22.3 C

21.2 C

254 W/m

0.00 mm

17:25

22.3 C

1013.8 hpa

37 %

9.7 km/h aus 75

22.5 km/h aus NNE

6.9 C

21.2 C

22.3 C

21.2 C

238 W/m

0.00 mm

17:30

22.3 C

1013.8 hpa

38 %

11.3 km/h aus 73

19.3 km/h aus NE

7.3 C

21.2 C

22.3 C

21.2 C

221 W/m

0.00 mm

17:35

22.3 C

1013.8 hpa

39 %

6.4 km/h aus 69

11.3 km/h aus NNE

7.7 C

21.3 C

22.3 C

21.3 C

205 W/m

0.00 mm

17:40

22.3 C

1013.8 hpa

37 %

8.0 km/h aus 69

17.7 km/h aus NE

6.9 C

21.1 C

22.3 C

21.1 C

192 W/m

0.00 mm

17:45

22.1 C

1013.9 hpa

37 %

8.0 km/h aus 63

17.7 km/h aus NE

6.7 C

20.8 C

22.1 C

20.8 C

177 W/m

0.00 mm

17:50

22.1 C

1013.9 hpa

38 %

8.0 km/h aus 63

16.1 km/h aus NE

7.1 C

20.8 C

22.1 C

20.8 C

160 W/m

0.00 mm

17:55

21.9 C

1013.9 hpa

39 %

8.0 km/h aus 71

14.5 km/h aus NE

7.3 C

20.6 C

21.9 C

20.6 C

141 W/m

0.00 mm

18:00

21.8 C

1013.9 hpa

39 %

9.7 km/h aus 65

16.1 km/h aus NNE

7.3 C

20.6 C

21.8 C

20.6 C

129 W/m

0.00 mm

18:05

21.7 C

1013.9 hpa

40 %

8.0 km/h aus 59

16.1 km/h aus NE

7.5 C

20.4 C

21.7 C

20.4 C

114 W/m

0.00 mm

18:10

21.4 C

1013.9 hpa

41 %

4.8 km/h aus 54

14.5 km/h aus NE

7.6 C

20.1 C

21.4 C

20.1 C

100 W/m

0.00 mm

18:15

21.3 C

1013.9 hpa

41 %

6.4 km/h aus 63

16.1 km/h aus NE

7.5 C

19.9 C

21.3 C

19.9 C

69 W/m

0.00 mm

18:20

21.3 C

1013.9 hpa

41 %

6.4 km/h aus 72

11.3 km/h aus NE

7.5 C

19.9 C

21.3 C

19.9 C

56 W/m

0.00 mm

18:25

21.2 C

1013.9 hpa

42 %

3.2 km/h aus 70

9.7 km/h aus NNE

7.7 C

19.8 C

21.2 C

19.8 C

55 W/m

0.00 mm

18:30

21.2 C

1013.9 hpa

42 %

3.2 km/h aus 81

8.0 km/h aus NNE

7.7 C

19.8 C

21.2 C

19.8 C

43 W/m

0.00 mm

18:35

21.2 C

1013.9 hpa

42 %

3.2 km/h aus 86

9.7 km/h aus NNE

7.8 C

19.9 C

21.2 C

19.9 C

38 W/m

0.00 mm

18:40

21.2 C

1013.9 hpa

42 %

3.2 km/h aus 83

6.4 km/h aus N

7.7 C

19.8 C

21.2 C

19.8 C

32 W/m

0.00 mm

18:45

21.1 C

1013.9 hpa

43 %

1.6 km/h aus 85

4.8 km/h aus NNE

8.0 C

19.8 C

21.1 C

19.8 C

26 W/m

0.00 mm

18:50

21.0 C

1013.9 hpa

43 %

1.6 km/h aus 94

4.8 km/h aus NNE

7.9 C

19.7 C

21.0 C

19.7 C

22 W/m

0.00 mm

18:55

20.9 C

1013.9 hpa

43 %

1.6 km/h aus 99

4.8 km/h aus NNE

7.8 C

19.6 C

20.9 C

19.6 C

19 W/m

0.00 mm

19:00

20.8 C

1014.1 hpa

43 %

1.6 km/h aus 111

3.2 km/h aus NNE

7.7 C

19.6 C

20.8 C

19.6 C

17 W/m

0.00 mm

19:05

20.6 C

1014.1 hpa

44 %

1.6 km/h aus 99

6.4 km/h aus NNE

7.9 C

19.5 C

20.6 C

19.5 C

15 W/m

0.00 mm

19:10

20.4 C

1014.1 hpa

44 %

3.2 km/h aus 100

4.8 km/h aus NNE

7.8 C

19.3 C

20.4 C

19.3 C

12 W/m

0.00 mm

19:15

20.2 C

1014.3 hpa

45 %

0.0 km/h aus 105

3.2 km/h aus NNE

7.9 C

19.2 C

20.2 C

19.2 C

10 W/m

0.00 mm

19:20

19.9 C

1014.3 hpa

46 %

0.0 km/h aus 110

0.0 km/h aus ---

7.9 C

18.9 C

19.9 C

18.9 C

7 W/m

0.00 mm

19:25

19.6 C

1014.3 hpa

47 %

0.0 km/h aus 108

0.0 km/h aus ---

7.9 C

18.6 C

19.6 C

18.6 C

5 W/m

0.00 mm

19:30

19.2 C

1014.3 hpa

49 %

0.0 km/h aus 108

0.0 km/h aus ---

8.2 C

18.3 C

19.2 C

18.3 C

2 W/m

0.00 mm

19:35

18.9 C

1014.3 hpa

50 %

0.0 km/h aus 116

3.2 km/h aus NNE

8.3 C

18.1 C

18.9 C

18.1 C

0 W/m

0.00 mm

19:40

18.7 C

1014.3 hpa

51 %

1.6 km/h aus 116

6.4 km/h aus NNE

8.3 C

17.8 C

18.7 C

17.8 C

0 W/m

0.00 mm

19:45

18.4 C

1014.4 hpa

51 %

1.6 km/h aus 116

4.8 km/h aus NNE

8.1 C

17.5 C

18.4 C

17.5 C

0 W/m

0.00 mm

19:50

18.0 C

1014.4 hpa

52 %

1.6 km/h aus 116

4.8 km/h aus NNE

8.0 C

17.1 C

18.0 C

17.1 C

0 W/m

0.00 mm

19:55

17.7 C

1014.4 hpa

53 %

0.0 km/h aus 113

3.2 km/h aus NNE

8.0 C

16.8 C

17.7 C

16.8 C

0 W/m

0.00 mm

20:00

17.3 C

1014.4 hpa

55 %

0.0 km/h aus 116

1.6 km/h aus NNE

8.1 C

16.5 C

17.3 C

16.5 C

0 W/m

0.00 mm

20:05

16.9 C

1014.4 hpa

56 %

0.0 km/h aus 114

1.6 km/h aus NNE

8.1 C

16.2 C

16.9 C

16.2 C

0 W/m

0.00 mm

20:10

16.6 C

1014.4 hpa

56 %

0.0 km/h aus 116

0.0 km/h aus ---

7.8 C

15.8 C

16.6 C

15.8 C

0 W/m

0.00 mm

20:15

16.3 C

1014.5 hpa

58 %

0.0 km/h aus 113

0.0 km/h aus ---

8.0 C

15.6 C

16.3 C

15.6 C

0 W/m

0.00 mm

20:20

15.9 C

1014.5 hpa

59 %

0.0 km/h aus 114

0.0 km/h aus ---

7.9 C

15.2 C

15.9 C

15.2 C

0 W/m

0.00 mm

20:25

15.7 C

1014.5 hpa

60 %

0.0 km/h aus 115

0.0 km/h aus ---

7.9 C

14.9 C

15.7 C

14.9 C

0 W/m

0.00 mm

20:30

15.4 C

1014.7 hpa

60 %

0.0 km/h aus 117

0.0 km/h aus ---

7.7 C

14.7 C

15.4 C

14.7 C

0 W/m

0.00 mm

20:35

15.2 C

1014.7 hpa

61 %

0.0 km/h aus 115

3.2 km/h aus NNE

7.7 C

14.5 C

15.2 C

14.5 C

0 W/m

0.00 mm

20:40

15.1 C

1014.7 hpa

61 %

0.0 km/h aus 111

0.0 km/h aus ---

7.6 C

14.4 C

15.1 C

14.4 C

0 W/m

0.00 mm

20:45

14.9 C

1014.8 hpa

61 %

0.0 km/h aus 116

3.2 km/h aus NNE

7.4 C

14.2 C

14.9 C

14.2 C

0 W/m

0.00 mm

20:50

14.7 C

1014.8 hpa

61 %

0.0 km/h aus 116

3.2 km/h aus NNE

7.3 C

14.1 C

14.7 C

14.1 C

0 W/m

0.00 mm

20:55

14.6 C

1014.8 hpa

62 %

0.0 km/h aus 116

3.2 km/h aus NNE

7.4 C

13.9 C

14.6 C

13.9 C

0 W/m

0.00 mm

21:00

14.4 C

1014.9 hpa

62 %

0.0 km/h aus 115

3.2 km/h aus NNE

7.2 C

13.7 C

14.4 C

13.7 C

0 W/m

0.00 mm

21:05

14.3 C

1014.9 hpa

63 %

0.0 km/h aus 113

1.6 km/h aus NNE

7.3 C

13.7 C

14.3 C

13.7 C

0 W/m

0.00 mm

21:10

14.2 C

1014.9 hpa

64 %

1.6 km/h aus 114

4.8 km/h aus NNE

7.5 C

13.6 C

14.2 C

13.6 C

0 W/m

0.00 mm

21:15

14.1 C

1014.9 hpa

65 %

1.6 km/h aus 116

4.8 km/h aus NNE

7.6 C

13.5 C

14.1 C

13.5 C

0 W/m

0.00 mm

21:20

14.0 C

1014.9 hpa

65 %

0.0 km/h aus 117

3.2 km/h aus NNE

7.5 C

13.4 C

14.0 C

13.4 C

0 W/m

0.00 mm

21:25

13.8 C

1014.9 hpa

65 %

0.0 km/h aus 117

1.6 km/h aus NNE

7.4 C

13.3 C

13.8 C

13.3 C

0 W/m

0.00 mm

21:30

13.7 C

1014.9 hpa

65 %

0.0 km/h aus 112

1.6 km/h aus NNE

7.2 C

13.1 C

13.7 C

13.1 C

0 W/m

0.00 mm

21:35

13.6 C

1014.9 hpa

65 %

0.0 km/h aus 115

0.0 km/h aus ---

7.1 C

13.0 C

13.6 C

13.0 C

0 W/m

0.00 mm

21:40

13.4 C

1014.9 hpa

67 %

0.0 km/h aus 116

3.2 km/h aus NNE

7.4 C

12.9 C

13.4 C

12.9 C

0 W/m

0.00 mm

21:45

13.3 C

1014.9 hpa

67 %

0.0 km/h aus 117

3.2 km/h aus NNE

7.3 C

12.8 C

13.3 C

12.8 C

0 W/m

0.00 mm

21:50

13.2 C

1014.9 hpa

67 %

0.0 km/h aus 117

3.2 km/h aus NNE

7.2 C

12.7 C

13.2 C

12.7 C

0 W/m

0.00 mm

21:55

13.2 C

1014.9 hpa

68 %

0.0 km/h aus 114

1.6 km/h aus NNE

7.4 C

12.7 C

13.2 C

12.7 C

0 W/m

0.00 mm

22:00

13.1 C

1014.9 hpa

69 %

0.0 km/h aus 116

3.2 km/h aus NNE

7.5 C

12.6 C

13.1 C

12.6 C

0 W/m

0.00 mm

22:05

12.9 C

1014.9 hpa

68 %

0.0 km/h aus 114

1.6 km/h aus NE

7.2 C

12.4 C

12.9 C

12.4 C

0 W/m

0.00 mm

22:10

12.7 C

1014.9 hpa

70 %

1.6 km/h aus 116

6.4 km/h aus NE

7.4 C

12.3 C

12.7 C

12.3 C

0 W/m

0.00 mm

22:15

12.6 C

1014.9 hpa

70 %

0.0 km/h aus 116

1.6 km/h aus SE

7.2 C

12.1 C

12.6 C

12.1 C

0 W/m

0.00 mm

22:20

12.4 C

1014.9 hpa

70 %

0.0 km/h aus 115

0.0 km/h aus ---

7.1 C

12.1 C

12.4 C

12.1 C

0 W/m

0.00 mm

22:25

12.2 C

1014.9 hpa

70 %

0.0 km/h aus 114

0.0 km/h aus ---

6.9 C

11.8 C

12.2 C

11.8 C

0 W/m

0.00 mm

22:30

12.1 C

1014.9 hpa

70 %

0.0 km/h aus 116

0.0 km/h aus ---

6.8 C

11.7 C

12.1 C

11.7 C

0 W/m

0.00 mm

22:35

11.9 C

1014.9 hpa

70 %

0.0 km/h aus 117

0.0 km/h aus ---

6.6 C

11.6 C

11.9 C

11.6 C

0 W/m

0.00 mm

22:40

11.8 C

1014.9 hpa

70 %

0.0 km/h aus 116

0.0 km/h aus ---

6.5 C

11.4 C

11.8 C

11.4 C

0 W/m

0.00 mm

22:45

11.7 C

1014.9 hpa

71 %

0.0 km/h aus 117

0.0 km/h aus ---

6.6 C

11.3 C

11.7 C

11.3 C

0 W/m

0.00 mm

22:50

11.6 C

1014.9 hpa

71 %

0.0 km/h aus 114

0.0 km/h aus ---

6.5 C

11.2 C

11.6 C

11.2 C

0 W/m

0.00 mm

22:55

11.4 C

1014.9 hpa

71 %

0.0 km/h aus 116

1.6 km/h aus SE

6.3 C

11.1 C

11.4 C

11.1 C

0 W/m

0.00 mm

23:00

11.3 C

1015.0 hpa

73 %

1.6 km/h aus 116

3.2 km/h aus SE

6.7 C

11.1 C

11.3 C

11.1 C

0 W/m

0.00 mm

23:05

11.3 C

1015.0 hpa

74 %

0.0 km/h aus 118

3.2 km/h aus SE

6.9 C

11.1 C

11.3 C

11.1 C

0 W/m

0.00 mm

23:10

11.2 C

1015.0 hpa

75 %

0.0 km/h aus 116

1.6 km/h aus SE

7.0 C

11.0 C

11.2 C

11.0 C

0 W/m

0.00 mm

23:15

11.1 C

1014.9 hpa

77 %

1.6 km/h aus 113

4.8 km/h aus SE

7.2 C

10.9 C

11.1 C

10.9 C

0 W/m

0.00 mm

23:20

11.0 C

1014.9 hpa

77 %

0.0 km/h aus 115

0.0 km/h aus ---

7.1 C

10.8 C

11.0 C

10.8 C

0 W/m

0.00 mm

23:25

10.9 C

1014.9 hpa

77 %

0.0 km/h aus 117

0.0 km/h aus ---

7.0 C

10.7 C

10.9 C

10.7 C

0 W/m

0.00 mm

23:30

10.7 C

1015.0 hpa

76 %

0.0 km/h aus 116

0.0 km/h aus ---

6.7 C

10.6 C

10.7 C

10.6 C

0 W/m

0.00 mm

23:35

10.6 C

1015.0 hpa

76 %

0.0 km/h aus 117

0.0 km/h aus ---

6.6 C

10.4 C

10.6 C

10.4 C

0 W/m

0.00 mm

23:40

10.5 C

1015.0 hpa

76 %

0.0 km/h aus 117

0.0 km/h aus ---

6.4 C

10.4 C

10.5 C

10.4 C

0 W/m

0.00 mm

23:45

10.4 C

1014.9 hpa

76 %

0.0 km/h aus 113

0.0 km/h aus ---

6.3 C

10.3 C

10.4 C

10.3 C

0 W/m

0.00 mm

23:50

10.3 C

1014.9 hpa

77 %

0.0 km/h aus 115

0.0 km/h aus ---

6.5 C

10.2 C

10.3 C

10.2 C

0 W/m

0.00 mm

23:55

10.2 C

1014.9 hpa

77 %

0.0 km/h aus 117

0.0 km/h aus ---

6.4 C

10.1 C

10.2 C

10.1 C

0 W/m

0.00 mm